Temp
25 24 23 23 24 26 26 27 27 27 28 28 27 26 26 25 25 30 32 32 33 30 29 30 30 30 30 31 32 32 31 31 31 31 31 31 31 30 28 27 27 26 26 26 25 25 23 20 17 18 18 17 17 17 17 17 18 18 18 18 19 18 18 18 19 19 20 20 20 20 21 21 21 21 21 21 20 20 19 19 19 18 18 18 18 18
25 23 23 25 26 27 27 27 27 27 28 28 26 25 26 26 26 30 32 32 33 30 28 31 30 30 31 31 32 32 31 31 31 31 31 31 31 30 29 28 27 27 27 26 25 26 22 16 16 18 17 17 17 17 17 18 18 17 17 17 17 17 18 18 19 20 20 20 20 21 21 21 21 21 21 20 20 19 19 19 19 19 18 18 18 18
24 23 24 26 27 27 27 28 27 27 27 27 26 25 24 26 28 30 32 33 32 29 28 30 29 29 31 31 32 32 31 30 31 31 30 31 31 30 29 29 28 27 27 26 26 24 19 15 16 16 16 17 17 17 17 17 17 17 17 16 17 18 18 19 19 19 19 20 21 21 21 21 21 21 20 20 19 19 19 19 19 19 19 19 19 18
22 23 26 27 27 27 27 27 27 26 26 26 25 24 23 26 27 25 28 31 31 29 29 30 28 29 31 31 32 32 32 31 30 31 31 31 31 30 29 29 29 27 27 27 23 20 17 15 16 16 17 17 17 17 17 16 17 17 16 16 17 18 19 19 19 19 20 20 20 21 21 21 20 20 20 20 20 19 19 19 19 19 19 19 19 19
24 26 27 27 27 27 27 26 26 25 24 25 25 24 24 27 27 26 28 30 30 28 29 29 25 26 29 30 30 31 32 31 30 30 30 31 31 30 29 29 29 28 27 24 19 16 16 16 16 16 17 17 17 17 17 17 17 17 16 16 17 18 18 19 19 19 20 20 20 20 20 20 20 20 20 20 20 20 19 19 19 19 19 19 19 19
26 28 28 27 27 27 26 25 26 25 23 24 26 26 26 27 28 29 29 28 25 24 28 27 22 22 27 29 30 31 31 30 30 30 30 30 30 29 29 28 28 27 22 18 15 15 16 16 16 16 17 17 17 17 17 17 17 17 16 17 17 17 18 19 19 20 20 20 19 20 20 20 20 20 20 20 20 20 19 19 19 19 19 19 19 19
27 28 28 27 27 27 26 25 26 26 23 22 25 27 27 27 27 27 28 26 22 22 27 28 22 21 24 27 29 31 30 29 29 30 30 30 30 27 27 28 27 24 18 16 16 16 16 16 16 16 16 17 17 17 17 17 17 17 17 17 17 17 19 19 19 20 20 19 19 19 20 20 20 20 20 20 20 20 19 19 19 19 19 19 18 18
27 27 27 27 27 26 25 25 26 27 24 23 27 28 28 28 27 27 27 25 24 24 26 27 25 22 22 26 30 31 29 29 29 29 29 30 27 24 26 27 23 20 18 17 17 17 16 16 16 16 16 16 17 17 17 17 18 18 18 18 18 18 19 19 19 20 20 19 19 20 20 20 20 20 20 20 19 19 19 19 19 19 19 19 18 18
28 27 26 26 26 25 25 26 27 27 25 25 28 29 29 29 28 28 27 25 25 24 22 24 26 22 21 25 30 30 28 28 28 28 29 28 24 23 26 25 20 19 20 20 19 17 16 16 16 17 16 16 16 17 17 17 18 18 18 18 18 19 19 19 20 20 19 19 19 20 20 20 20 20 19 19 19 19 19 19 19 19 19 19 18 18
28 27 27 27 25 25 26 27 28 27 26 27 28 28 29 29 29 28 27 24 24 23 21 23 24 22 21 24 27 27 27 27 28 28 28 26 24 25 25 21 18 19 20 21 20 17 16 16 16 17 16 16 16 17 17 17 18 18 19 19 19 19 19 19 20 19 19 19 19 20 20 20 20 20 20 19 19 19 19 19 19 19 18 18 18 18
28 28 28 28 27 27 27 28 28 28 28 28 28 28 27 28 28 28 26 25 23 21 21 23 24 23 21 23 25 26 27 28 28 28 27 26 26 26 23 19 19 20 20 21 20 17 17 17 16 17 17 16 16 16 17 18 17 18 19 19 18 19 19 19 19 19 19 19 19 20 20 20 20 20 20 19 19 19 19 19 19 18 18 18 18 17
27 27 27 28 28 28 28 28 28 29 29 28 28 26 25 24 25 24 24 23 22 21 22 23 25 23 21 23 26 28 29 29 29 27 25 24 26 25 22 19 20 20 20 21 20 18 17 16 16 17 17 17 16 16 17 17 17 17 18 18 18 18 18 19 19 19 19 19 19 20 20 20 20 20 19 19 19 19 19 19 19 18 18 18 17 17
26 27 27 27 28 28 27 27 27 28 28 28 27 24 22 22 22 21 21 22 21 21 23 24 25 23 21 24 27 28 28 27 28 27 24 24 26 25 23 20 20 20 20 21 21 18 16 16 17 17 17 17 16 16 17 16 16 17 17 17 18 18 19 19 19 19 19 19 19 20 20 20 20 20 19 19 19 19 19 19 19 19 18 18 18 17
23 26 27 27 27 28 27 25 24 25 26 26 25 23 21 21 21 21 21 21 21 21 23 25 24 22 21 24 27 27 26 26 26 27 27 26 26 25 24 22 20 20 21 21 19 16 15 16 16 16 16 17 17 16 16 16 16 16 16 17 18 18 18 19 19 19 19 19 19 20 20 19 20 19 19 19 19 19 19 19 19 19 18 18 18 17
21 22 25 26 26 27 27 26 26 26 26 26 27 25 23 21 21 21 21 21 21 21 23 24 23 21 21 23 26 26 26 26 26 27 27 27 26 25 25 23 22 22 22 21 17 16 16 16 15 16 16 17 17 17 17 17 17 17 17 17 17 17 18 18 18 19 19 19 19 19 19 19 19 19 19 19 19 19 19 19 19 19 19 18 18 18
21 22 26 27 27 28 27 27 28 28 26 27 28 26 23 23 23 21 21 21 21 21 22 22 22 22 23 25 26 26 26 26 26 26 26 25 24 24 24 23 23 23 22 19 16 16 16 15 15 16 15 16 17 17 17 17 17 17 17 18 17 17 18 18 18 19 19 19 19 19 19 19 19 19 19 19 19 19 19 19 19 19 18 18 18 17
21 22 27 28 27 28 28 28 29 27 25 25 26 24 25 28 26 21 21 22 21 21 21 22 21 22 23 25 25 25 25 25 25 24 23 22 22 22 22 23 23 23 19 16 16 16 16 16 15 15 15 15 16 16 16 16 17 17 17 18 18 17 17 17 18 18 18 18 18 18 19 19 19 20 20 19 19 19 19 19 19 19 18 18 17 17
22 22 26 27 26 28 29 28 29 29 27 25 23 25 27 28 26 23 21 21 21 21 21 22 21 21 21 22 24 25 25 23 23 22 20 20 21 21 21 21 22 21 18 16 16 16 16 16 15 15 16 15 15 15 16 16 17 17 16 17 18 17 17 17 17 18 18 18 18 18 18 19 19 19 20 19 19 19 19 19 19 19 18 18 17 17
24 22 23 26 26 28 29 28 26 28 29 27 26 27 26 23 22 22 21 21 21 20 21 21 21 21 21 22 23 23 23 22 21 21 19 19 20 20 20 20 20 18 16 16 16 15 16 16 15 16 16 15 15 15 15 16 16 17 17 17 17 17 17 17 17 18 17 18 18 18 18 18 19 19 19 19 19 19 19 18 18 18 18 18 17 17
25 21 21 25 27 28 28 26 24 25 28 28 27 27 26 23 22 22 21 21 21 21 21 21 21 21 21 23 23 21 22 21 20 20 18 18 19 20 19 18 17 16 16 16 16 15 17 17 18 18 17 16 15 15 15 15 15 16 17 17 17 17 17 17 17 18 17 18 18 18 18 18 18 19 19 18 18 18 18 18 18 18 18 18 17 17
25 22 21 24 27 26 25 25 25 24 26 26 25 24 24 24 24 22 21 22 22 21 21 21 21 20 20 23 23 21 21 21 20 19 18 17 18 19 18 17 16 17 17 17 17 18 18 18 19 19 19 18 17 16 16 16 16 17 17 17 17 17 17 18 18 18 18 18 18 18 18 18 18 18 18 18 18 18 18 18 18 18 18 17 17 17
23 22 21 22 23 23 23 26 28 27 27 26 25 24 24 24 23 22 21 22 22 21 21 21 20 20 21 23 23 21 21 22 21 20 19 18 17 18 17 16 16 16 16 17 19 19 20 20 20 20 19 19 18 17 16 16 16 17 17 17 17 18 18 18 17 17 17 17 17 17 17 17 18 18 18 18 18 18 18 18 18 17 17 17 17 17
23 23 21 21 22 23 24 27 27 27 28 28 27 26 26 25 23 21 20 21 22 21 22 21 20 20 22 23 23 22 22 22 22 22 21 19 18 18 17 16 16 16 17 19 20 20 20 21 21 21 20 20 19 18 18 17 17 17 16 16 16 17 17 17 17 17 17 17 17 17 17 17 18 18 18 18 18 18 18 18 17 17 17 17 17 17
23 22 21 21 21 23 24 25 25 27 27 26 26 27 26 26 25 24 22 21 21 21 21 21 20 20 21 23 23 23 22 21 22 22 21 21 20 19 19 19 19 19 20 21 21 21 21 21 22 21 21 20 20 19 18 18 18 18 18 17 17 17 17 18 18 17 18 18 17 17 17 17 17 18 18 18 18 18 18 17 17 17 17 17 17 17
21 21 21 20 19 20 21 22 22 23 24 23 24 26 27 26 26 25 24 22 21 21 21 21 20 20 21 22 21 22 22 21 21 22 21 21 21 20 21 21 21 21 20 20 21 21 21 21 21 21 21 20 20 19 19 18 18 18 18 18 18 17 17 18 18 18 18 17 17 17 17 17 17 18 18 18 18 18 18 17 17 17 17 17 17 18
21 21 21 20 19 18 18 19 19 19 20 21 22 24 26 26 26 23 21 21 21 21 21 21 20 20 22 22 19 19 19 18 18 20 21 21 21 20 20 20 20 20 19 19 20 20 20 20 20 21 20 20 20 19 18 18 18 18 18 18 18 18 18 18 18 18 18 18 18 17 17 17 17 17 17 18 18 18 18 17 17 17 17 18 18 18
21 21 21 20 20 19 18 19 20 19 20 20 21 22 23 25 26 24 21 20 21 20 20 19 20 20 21 21 18 16 17 16 16 17 19 20 20 19 19 20 20 19 19 19 19 19 19 19 19 20 20 20 20 19 18 18 18 18 17 18 18 18 18 18 18 18 17 17 17 17 16 17 17 17 17 17 17 18 18 18 18 18 18 18 18 18
21 20 21 20 20 21 21 21 20 19 20 20 20 21 22 22 23 23 21 21 21 20 19 19 20 20 19 19 18 17 16 16 15 15 16 18 19 18 19 19 19 20 20 19 19 19 18 18 18 18 18 18 18 18 17 17 17 16 16 17 17 17 17 17 17 17 17 17 16 15 15 15 15 15 15 16 16 16 17 17 17 18 18 18 18 18
21 21 20 20 20 21 21 22 21 20 19 20 20 20 21 20 19 19 20 21 22 21 19 19 19 18 17 17 17 17 17 16 16 15 15 15 16 17 18 19 19 20 20 20 19 19 19 18 17 17 16 17 18 17 16 16 15 15 15 15 15 15 15 15 15 15 16 16 15 14 14 14 15 15 15 16 15 15 15 16 16 17 17 18 18 18
21 20 20 20 20 20 21 21 21 20 19 19 19 19 20 20 18 17 16 18 21 21 19 18 18 17 17 17 17 17 17 17 16 16 15 15 15 16 16 17 18 19 18 19 19 19 19 18 18 17 17 17 18 17 16 15 14 14 14 14 14 13 13 13 13 15 15 15 15 14 14 15 16 15 15 15 15 15 16 16 16 17 17 17 17 18
20 18 19 20 20 20 20 20 20 19 19 19 18 18 19 19 18 18 16 15 18 19 18 18 16 16 17 17 16 15 15 15 15 14 13 13 14 15 15 16 18 18 18 18 18 18 18 18 18 18 18 18 18 18 16 15 15 15 14 14 14 14 15 14 14 15 16 15 14 14 14 15 15 15 14 15 15 15 16 16 16 17 16 16 16 17
20 19 19 19 19 19 20 20 19 19 18 18 18 18 18 18 18 18 17 16 16 17 17 17 16 15 16 15 13 13 13 13 13 12 11 11 12 13 13 13 14 15 16 16 16 15 15 14 14 14 15 16 17 17 17 16 16 15 15 15 15 16 16 16 15 15 16 15 14 14 13 14 15 15 15 15 15 15 15 15 15 15 15 16 16 16
19 18 18 19 18 19 20 20 19 18 16 16 17 18 18 18 18 17 17 16 16 16 16 16 16 15 15 13 12 12 12 11 11 11 11 11 11 11 11 11 11 11 12 12 12 12 12 12 12 12 12 13 14 15 16 16 16 17 16 16 17 17 17 17 16 15 15 16 15 15 14 14 15 15 15 15 15 15 15 15 15 14 15 15 15 15
17 16 18 18 18 18 19 19 17 16 16 15 16 17 18 18 17 16 15 16 17 16 16 16 17 16 15 13 12 11 10 10 10 10 10 11 10 10 10 10 10 10 10 10 10 11 11 11 11 11 11 11 12 13 13 13 15 17 18 18 18 18 18 18 18 17 17 17 17 16 16 15 15 15 15 15 15 15 14 15 14 14 14 14 14 14
14 15 17 18 18 17 17 17 16 14 15 15 16 17 18 17 16 15 15 16 17 17 16 16 16 15 13 12 11 10 10 9 8 8 8 9 9 9 8 8 9 9 9 9 9 10 9 9 10 10 10 11 11 12 12 11 12 14 17 18 19 19 19 19 18 18 18 18 18 18 17 17 16 15 15 15 14 14 14 14 14 14 14 14 14 14
16 17 18 18 17 16 16 16 15 14 15 16 16 17 17 17 16 15 14 15 16 16 15 15 14 13 12 12 11 11 10 10 9 7 7 7 7 7 7 7 7 7 8 8 8 9 9 9 9 9 9 10 10 11 11 11 12 12 14 16 18 18 18 18 18 18 18 18 18 18 18 18 17 17 17 16 16 15 15 14 14 14 14 14 14 14
18 17 17 16 16 16 16 16 14 14 14 15 15 16 16 16 16 15 14 14 15 15 14 14 13 13 12 12 12 12 12 12 11 10 9 8 7 7 7 7 7 7 7 7 7 8 8 8 9 9 9 10 10 10 10 11 12 12 12 13 14 15 15 15 16 16 16 17 17 17 17 17 18 18 18 18 17 17 16 16 15 15 15 14 14 14
19 16 15 14 15 15 15 15 14 13 13 13 13 14 15 15 16 16 15 14 14 14 14 13 13 12 12 12 12 13 13 12 11 11 11 10 9 8 8 8 8 7 7 7 7 8 9 9 9 9 10 10 10 10 10 11 11 12 12 12 12 13 13 13 14 14 15 15 16 16 16 16 16 17 17 17 17 17 17 17 16 16 15 15 14 14
20 18 15 15 15 15 15 15 14 13 12 11 12 14 15 15 15 16 15 14 14 14 14 14 13 13 13 13 13 14 14 12 11 11 12 12 11 10 10 10 10 9 9 9 9 10 10 10 10 10 11 11 11 10 11 11 11 11 12 12 12 12 12 12 13 13 14 14 14 15 15 15 15 15 15 16 16 16 16 17 17 16 16 15 15 15
19 18 17 16 16 16 16 15 13 12 11 12 13 14 14 15 15 15 13 13 14 15 14 14 14 14 14 14 14 14 13 12 12 12 13 13 13 12 12 12 12 12 12 11 11 12 12 12 11 11 12 12 12 12 11 11 11 12 12 12 12 12 12 12 12 13 13 13 14 14 15 15 14 14 14 14 15 15 15 16 16 16 16 16 16 16
17 17 17 17 16 15 15 14 12 11 11 11 13 14 14 14 14 13 13 14 16 16 15 15 14 14 14 14 13 13 13 13 13 14 14 13 13 13 13 13 13 13 12 12 12 12 12 12 12 12 12 12 12 12 12 12 12 12 12 12 12 13 12 12 12 12 12 13 14 14 14 14 14 14 14 14 14 14 14 15 15 16 16 16 17 17
16 16 16 16 15 15 15 13 11 11 11 11 12 14 15 13 12 12 13 15 15 16 15 15 14 13 13 13 13 13 13 14 13 13 13 13 12 12 13 12 12 12 12 12 11 11 11 12 12 11 11 11 11 11 11 11 11 11 11 12 12 12 12 12 12 12 12 13 13 13 13 13 13 13 13 13 14 14 14 14 14 15 15 16 16 16
15 15 15 14 13 15 15 13 11 10 11 12 13 13 14 13 12 13 15 15 14 15 15 14 13 13 13 13 13 13 13 13 13 12 12 12 12 12 12 11 11 11 11 11 11 10 10 11 11 11 11 11 11 11 11 11 11 11 11 11 11 11 11 11 11 11 12 12 12 12 12 13 13 13 13 13 13 13 14 14 14 14 15 15 15 16
14 14 14 13 13 14 13 11 10 11 12 14 13 12 13 13 14 15 15 14 14 14 14 13 13 13 13 13 12 12 12 12 12 12 11 11 11 11 11 11 11 10 10 10 10 10 10 10 10 10 10 10 10 10 10 10 10 10 10 10 10 10 11 11 11 11 11 11 11 12 12 12 13 13 13 13 13 13 13 13 14 14 14 14 15 15
14 14 14 13 13 13 12 11 12 12 13 14 13 12 12 12 13 13 13 13 13 13 13 12 12 13 13 12 12 11 11 11 11 11 11 11 11 11 11 10 10 10 10 10 10 9 9 10 10 10 10 10 9 9 9 9 9 9 9 10 10 10 10 10 11 11 11 11 11 11 11 12 12 12 13 13 13 13 13 13 13 14 14 14 15 15
15 15 15 13 12 13 12 12 12 12 12 13 13 12 12 12 12 12 12 12 12 12 12 12 12 12 12 12 12 11 11 11 11 10 11 10 10 10 10 10 9 9 9 9 9 8 9 9 9 9 9 9 9 8 8 8 8 9 9 9 9 9 9 10 10 10 10 10 10 10 10 11 11 11 12 12 12 13 13 13 13 13 14 14 14 14
15 15 15 13 12 12 11 11 12 12 12 12 12 12 12 12 12 12 11 11 11 11 11 11 11 11 11 11 11 11 10 10 10 10 10 10 10 10 10 9 9 9 9 9 8 8 8 8 9 9 9 8 8 8 8 8 8 8 8 8 8 9 9 9 9 9 9 9 10 10 10 10 10 11 11 11 11 12 12 12 12 13 13 13 14 14
14 15 14 13 13 12 11 11 12 12 12 12 12 12 12 12 11 11 11 11 11 11 11 11 11 10 10 10 11 10 10 10 10 10 10 10 10 10 10 9 9 9 9 8 8 8 8 8 8 8 8 8 8 7 7 8 8 8 8 8 8 8 8 8 8 8 9 9 9 9 9 9 10 10 10 10 11 11 11 11 12 12 12 13 13 13
14 14 14 13 12 11 11 11 12 12 12 12 12 12 12 11 11 11 11 11 11 10 10 10 10 10 10 10 10 10 10 10 10 10 10 10 10 10 9 9 9 8 8 8 8 8 7 7 7 7 7 7 6 6 7 7 7 7 7 6 6 6 6 6 7 7 8 8 8 8 9 9 9 9 10 10 10 10 11 11 11 11 12 12 12 11
14 13 14 13 12 11 11 11 12 11 11 11 12 12 12 12 12 11 11 11 11 11 11 10 10 10 10 10 10 10 10 9 9 10 10 10 9 9 9 8 8 8 8 8 7 7 6 6 6 6 6 6 5 6 6 6 6 6 5 5 5 5 5 5 5 6 6 7 7 7 7 7 8 8 9 9 9 10 10 10 11 11 11 11 11 11
13 12 13 12 12 12 12 12 12 12 11 11 12 12 12 12 12 12 12 11 11 11 11 11 11 10 10 10 10 10 9 9 9 9 9 9 9 8 8 8 8 7 7 7 6 6 5 5 5 5 5 5 5 5 5 5 5 5 5 5 5 5 5 5 5 5 5 5 6 6 6 6 6 7 7 7 8 8 9 9 10 10 10 10 11 11
Height
728 738 740 738 734 727 724 721 719 716 711 710 712 711 705 707 708 695 687 679 678 696 706 704 707 709 710 704 697 697 700 703 705 708 709 707 710 716 721 726 729 732 731 731 734 738 744 751 755 758 761 764 767 771 774 776 779 780 782 784 785 789 791 792 795 796 797 798 801 803 806 807 808 809 810 810 811 811 811 812 813 813 814 814 814 815
728 740 737 727 724 719 716 716 716 716 714 713 717 715 703 701 702 690 683 680 679 696 703 701 706 707 704 702 697 695 701 706 706 709 711 708 709 712 716 722 726 729 728 730 733 736 747 755 755 758 762 766 768 771 774 775 778 780 782 784 785 788 791 793 795 796 797 798 800 803 804 806 808 809 810 810 811 811 812 812 813 814 814 814 814 814
735 737 728 719 715 714 713 711 714 717 716 718 719 718 710 700 695 689 683 678 682 699 703 700 708 709 702 698 696 694 698 703 703 706 709 707 708 711 715 719 722 728 729 729 732 740 752 757 757 761 763 766 770 771 773 775 777 780 781 783 785 788 790 792 794 796 797 798 799 802 804 805 807 808 809 810 811 812 812 813 813 814 814 814 814 814
739 730 718 713 711 713 714 713 716 719 719 723 722 721 717 703 697 700 696 687 690 702 705 703 708 709 703 697 695 693 693 698 702 704 705 704 706 711 714 716 719 726 729 731 739 751 760 760 759 762 763 765 769 770 773 776 778 780 782 783 785 787 789 791 793 795 796 797 798 801 803 804 806 808 809 810 811 811 812 813 813 814 814 814 814 814
726 714 706 709 710 710 715 718 722 726 727 724 721 721 717 706 699 700 699 696 697 705 706 710 720 715 704 702 701 694 690 697 702 703 704 703 704 709 713 715 717 723 728 736 751 762 764 760 757 759 763 766 769 771 774 777 778 780 782 784 785 787 789 791 792 794 795 796 798 800 803 805 806 808 810 810 811 811 811 812 813 813 814 815 815 815
714 703 699 706 707 709 717 722 722 726 731 725 719 717 713 709 703 696 698 702 713 720 709 715 739 731 707 705 706 696 695 703 704 703 706 705 704 710 715 717 718 725 736 745 758 765 763 758 757 760 766 770 772 774 775 777 778 780 782 783 784 786 788 790 791 792 793 794 797 800 803 805 807 809 809 809 810 810 811 812 813 813 814 815 815 816
707 700 700 705 707 712 720 723 718 719 731 730 715 708 710 710 708 704 703 708 723 730 712 711 737 738 716 708 703 697 701 706 705 705 706 704 706 714 719 719 723 733 744 752 760 765 764 761 760 763 767 770 772 772 773 774 776 778 780 781 783 785 786 788 789 790 792 793 796 800 803 805 807 808 808 809 810 810 811 812 813 814 814 815 816 816
704 704 706 707 709 716 721 721 715 713 727 728 708 702 707 708 711 709 706 709 714 718 713 708 720 733 725 707 696 696 702 706 706 708 708 706 712 722 723 723 732 742 747 752 759 763 764 762 760 761 765 768 770 770 770 770 772 774 777 779 781 783 785 786 788 789 790 792 796 800 803 805 806 807 808 809 809 811 812 813 814 814 815 816 816 817
700 706 710 710 713 718 717 714 708 708 719 716 701 698 698 700 706 705 706 712 709 718 729 715 711 731 730 704 694 698 703 708 709 710 710 712 720 725 724 728 740 748 747 747 753 759 760 758 754 755 761 767 769 769 770 769 770 773 775 778 781 782 784 785 787 789 789 792 796 800 802 804 805 807 808 809 810 811 813 813 814 815 815 816 817 818
697 700 700 706 714 714 710 705 701 705 711 705 699 699 695 696 700 703 709 711 712 729 739 721 714 734 733 709 702 706 706 709 710 709 710 715 721 723 727 737 745 749 746 743 749 756 758 755 752 754 759 766 769 769 770 770 769 771 773 776 779 781 782 784 786 788 789 793 797 800 802 804 805 807 808 810 811 812 813 814 815 815 816 817 818 818
694 692 693 698 705 705 701 698 695 697 700 698 700 702 702 701 699 703 707 707 724 741 735 719 713 728 735 716 704 706 703 704 706 709 712 715 719 723 731 740 744 745 744 743 750 756 759 758 756 758 762 765 768 769 769 770 769 769 770 772 775 778 781 783 785 787 790 794 797 800 802 804 805 807 808 810 811 813 814 815 815 816 817 818 818 819
697 699 700 696 695 696 697 697 693 690 691 697 704 707 713 714 709 713 713 716 740 748 729 712 704 717 736 722 702 700 697 697 703 710 720 724 722 724 732 738 739 740 741 742 750 756 759 762 761 763 766 767 769 769 768 769 770 769 770 771 774 778 781 784 786 788 791 795 798 800 802 804 805 807 808 809 811 813 814 815 816 817 818 819 819 820
703 701 699 697 694 693 699 703 700 697 695 700 705 712 725 732 731 736 735 732 741 736 717 706 704 719 732 716 701 701 702 704 705 708 720 725 723 725 731 737 739 737 737 739 746 755 761 763 765 769 771 770 769 769 768 770 772 772 772 774 776 779 782 784 787 789 792 796 799 801 802 804 805 806 808 809 810 812 813 815 816 817 818 819 820 820
712 704 695 699 699 692 698 707 709 707 704 706 707 714 729 739 747 753 746 738 737 726 708 699 709 727 730 715 705 706 708 710 706 705 710 715 719 724 728 734 738 736 734 737 744 757 763 764 768 771 771 770 770 771 772 773 776 777 777 778 779 781 783 785 788 791 793 796 798 800 801 803 804 805 807 808 810 811 813 814 816 818 819 819 820 821
721 719 701 699 699 694 697 700 700 698 700 703 700 705 718 727 741 749 744 741 737 727 713 705 718 734 735 723 710 706 708 708 709 709 709 713 718 723 726 730 735 735 734 738 746 755 759 759 763 766 766 769 771 773 776 778 781 781 781 782 782 782 784 786 788 790 792 795 797 798 800 801 803 804 805 807 809 811 813 814 816 818 819 820 821 821
715 713 693 689 690 689 696 694 688 693 701 699 692 701 714 713 719 732 735 732 731 734 727 717 722 727 725 718 708 708 711 709 713 716 716 722 723 724 728 730 733 735 738 746 751 756 758 758 762 766 768 769 771 775 776 778 781 783 783 784 783 783 784 786 788 789 791 794 796 797 799 800 802 803 804 806 809 811 813 814 816 817 819 820 821 821
715 708 685 684 687 685 690 690 686 695 707 706 701 705 702 693 702 726 735 725 728 745 737 722 730 731 723 719 712 712 716 716 719 722 726 731 730 729 732 732 733 736 744 753 754 755 759 761 766 771 771 769 769 774 775 775 778 781 784 785 784 784 785 787 788 789 790 793 795 797 799 800 802 803 804 805 808 811 813 814 816 817 819 820 820 821
710 710 691 686 693 685 680 685 685 684 693 707 712 702 692 691 699 719 737 735 739 749 732 720 736 742 736 731 722 716 721 726 727 730 736 737 735 737 737 737 739 741 749 755 756 756 759 764 769 772 771 768 768 771 772 772 773 777 782 784 785 785 785 785 787 789 790 792 794 797 799 801 802 802 804 805 808 810 812 814 816 817 818 820 820 821
701 716 706 691 691 684 676 687 694 686 682 692 699 694 701 722 724 720 733 743 747 752 739 722 723 732 734 730 726 727 730 735 737 737 742 742 739 741 741 742 744 746 749 753 757 761 762 765 768 766 767 768 769 770 770 770 771 773 776 781 785 788 788 787 787 788 790 792 795 797 799 801 801 802 803 805 808 810 812 814 815 817 819 819 820 821
699 720 721 696 684 684 684 694 703 699 687 685 691 692 700 718 726 727 732 732 735 746 745 728 722 736 740 724 725 736 735 737 744 746 749 749 744 742 743 746 747 748 750 753 760 764 763 763 762 760 764 766 767 770 769 770 772 773 774 777 782 788 790 790 788 788 791 793 795 797 799 801 801 801 804 805 807 809 811 814 815 817 819 819 820 821
700 720 727 706 689 691 697 697 700 701 696 695 701 703 704 707 711 723 728 720 722 735 739 735 739 750 744 724 724 736 736 736 745 751 756 757 754 749 748 750 751 753 753 754 759 761 760 761 760 759 761 763 765 769 770 772 774 776 777 778 782 786 789 790 789 789 791 793 795 797 799 800 800 802 804 805 807 809 811 813 815 817 819 819 820 821
705 714 725 719 708 708 704 691 687 691 692 695 700 702 705 706 709 725 733 719 712 723 730 740 755 754 738 726 727 731 733 733 737 744 752 758 761 757 754 755 756 760 760 756 756 758 758 759 759 759 761 763 766 769 771 774 775 777 780 782 784 786 788 789 789 790 792 793 795 797 798 799 800 802 804 805 807 808 810 813 814 816 818 819 820 821
704 710 719 721 715 711 702 690 687 688 685 688 692 693 695 699 707 726 741 732 720 721 721 732 754 754 733 724 727 729 731 733 734 738 744 752 758 758 758 760 761 763 762 756 755 757 757 758 758 760 762 764 766 769 772 774 776 778 781 783 785 786 788 789 790 791 792 793 795 796 797 798 799 801 803 805 806 807 809 811 813 815 817 818 819 820
705 712 718 724 723 713 702 696 695 689 687 691 691 690 694 697 699 706 719 727 729 729 726 735 755 755 735 726 728 729 732 735 737 739 743 746 750 753 754 755 756 757 756 754 754 756 756 757 758 760 763 765 767 770 773 775 776 779 781 783 785 787 788 789 790 791 792 793 795 796 797 798 800 802 803 804 805 806 808 810 811 813 815 817 818 819
718 720 721 732 742 737 727 722 718 711 708 709 703 695 692 693 696 701 707 716 725 725 721 735 757 754 735 731 734 732 734 740 740 740 743 745 746 749 750 751 752 753 755 756 756 757 758 759 760 762 764 766 769 772 774 777 778 779 781 782 784 786 787 788 789 790 791 792 794 795 796 798 798 799 800 801 803 804 806 808 810 812 814 816 818 819
722 724 724 736 747 753 754 747 741 738 732 725 717 706 697 692 696 711 724 730 733 727 720 734 754 750 734 734 745 747 747 753 752 746 745 746 748 751 751 752 753 755 758 759 759 760 761 762 763 765 767 769 771 774 776 778 779 780 782 782 783 785 786 787 788 789 790 791 792 793 795 796 795 795 797 799 801 803 805 807 809 811 813 815 817 818
717 722 725 733 738 744 750 743 737 740 738 734 731 720 711 703 695 706 728 738 736 737 742 745 745 745 743 744 756 762 761 764 765 760 755 753 753 755 755 755 756 757 760 762 763 765 765 766 767 768 770 772 773 775 777 779 780 782 783 783 784 785 786 787 788 788 790 791 792 794 795 795 795 796 798 800 802 804 806 808 810 812 813 815 816 818
718 726 725 729 731 729 731 731 732 737 738 739 737 728 721 718 710 711 723 726 725 738 756 752 740 747 756 754 758 764 765 767 768 766 765 762 759 759 758 758 758 758 760 762 765 767 769 770 772 772 774 775 776 778 780 781 782 782 783 784 785 786 786 787 788 788 789 790 793 796 797 799 801 802 803 804 804 806 807 810 813 814 815 816 817 818
717 725 724 726 729 725 724 725 727 735 739 739 739 735 730 730 732 733 731 722 716 728 747 748 745 756 762 759 759 762 762 766 767 767 770 771 768 764 761 761 761 761 762 764 766 769 771 774 775 777 778 779 780 782 783 785 785 784 785 787 788 788 788 789 790 790 790 790 793 796 797 799 802 803 804 805 805 807 809 812 814 814 815 817 818 818
719 729 727 725 728 728 728 729 729 734 740 740 741 741 738 737 740 745 748 739 724 725 739 746 752 761 763 760 761 760 759 762 765 768 772 775 775 772 768 767 766 766 767 768 770 772 773 775 777 778 779 781 782 783 786 789 789 788 789 792 793 793 791 792 792 791 791 793 794 796 796 797 798 800 802 803 804 806 808 810 811 811 812 814 816 818
724 735 731 725 731 732 730 733 736 738 742 743 745 745 743 745 745 747 756 757 746 740 743 749 759 767 764 761 764 766 766 766 768 774 779 780 780 777 776 774 770 770 772 772 775 777 778 779 781 781 782 784 784 785 787 789 789 790 792 793 793 793 791 791 792 790 791 794 795 796 797 797 797 799 801 802 803 805 807 808 808 809 809 811 813 816
725 733 732 730 738 737 730 733 738 742 746 748 748 749 749 751 753 751 755 761 759 755 752 755 765 770 767 768 773 776 776 776 778 782 786 789 787 785 785 784 781 780 779 780 783 785 787 788 789 789 788 787 787 787 788 790 790 792 792 791 791 791 790 790 792 792 793 794 796 798 798 798 799 801 803 804 805 806 807 808 809 810 810 811 813 815
727 734 734 734 741 739 730 733 740 746 755 757 751 748 749 751 753 756 759 760 760 760 760 760 764 767 769 774 781 784 784 786 788 788 789 791 792 793 793 793 792 792 791 792 794 795 796 796 796 796 795 793 793 792 792 792 792 792 791 790 789 789 790 791 793 795 796 796 796 797 798 800 800 801 803 804 805 806 807 808 809 810 811 812 813 815
739 743 738 735 742 743 736 736 746 755 762 763 755 746 746 750 754 760 766 764 761 762 763 759 760 765 772 778 785 790 793 795 797 797 794 794 795 798 799 798 798 798 799 800 800 801 802 802 802 802 800 798 798 797 795 795 793 792 791 790 790 790 791 792 794 796 797 797 796 797 798 800 801 802 803 804 805 806 807 809 810 811 812 812 813 814
753 749 739 736 742 748 747 748 759 768 765 759 756 749 747 752 755 761 767 765 762 763 764 763 766 770 776 784 789 793 797 801 803 803 801 800 800 802 804 805 805 805 805 805 805 806 808 808 808 807 805 803 802 800 799 798 796 794 793 792 793 793 794 795 797 798 799 799 798 798 799 800 801 802 804 806 806 807 808 810 811 813 813 813 814 814
746 741 736 739 743 750 755 757 766 772 764 756 756 752 751 755 758 765 773 772 767 767 769 772 775 777 781 788 791 793 797 798 801 805 807 806 806 806 808 810 811 810 811 811 811 812 812 813 813 813 811 809 806 805 805 804 801 798 797 797 798 798 799 799 801 802 803 802 801 801 801 801 802 803 804 805 806 807 808 810 811 812 813 813 814 814
732 738 743 748 751 752 754 758 765 770 767 763 762 760 760 761 760 764 774 777 773 772 775 777 780 782 785 788 791 793 793 793 798 805 806 807 808 809 810 812 813 814 814 815 815 816 816 817 817 817 816 814 813 812 811 809 807 805 804 804 804 804 804 805 805 806 807 806 806 805 804 804 804 805 805 806 806 806 807 808 809 810 811 812 812 813
725 739 751 756 757 756 755 760 766 771 775 775 773 768 765 764 760 758 767 776 776 776 778 781 783 787 788 789 792 792 790 795 803 807 805 805 807 808 809 811 813 814 816 817 817 818 819 819 819 820 819 818 817 817 817 816 814 812 812 812 812 811 811 811 811 811 811 810 810 809 808 808 807 807 807 806 807 807 807 807 808 809 809 810 811 812
723 734 746 752 755 754 754 762 769 776 783 784 779 772 768 767 764 760 768 779 780 777 779 782 785 787 788 790 791 790 790 798 805 806 805 805 806 807 809 811 812 814 816 818 818 819 820 820 820 820 820 819 819 819 819 819 817 816 816 817 818 818 817 816 816 815 814 814 813 812 812 811 810 809 809 808 808 808 808 808 808 809 809 809 809 810
729 733 741 748 752 752 752 760 772 781 786 783 778 773 770 768 766 768 779 785 778 775 779 782 784 786 787 789 791 790 792 797 800 803 804 805 806 808 809 811 813 815 817 819 819 820 820 821 821 821 821 820 820 819 819 819 818 818 819 819 820 820 820 819 818 817 816 816 815 814 814 813 812 811 810 810 809 809 809 809 808 809 809 808 808 809
739 738 740 744 750 754 757 767 779 785 787 784 779 774 771 769 771 777 784 782 774 772 777 780 783 787 789 790 792 793 795 796 798 801 804 806 808 810 811 814 816 817 819 820 821 821 821 821 821 821 821 821 821 820 820 820 820 820 820 820 820 820 820 819 818 817 816 816 815 814 814 813 813 812 811 811 810 810 810 809 809 808 808 808 808 808
748 748 746 748 752 753 756 769 783 789 790 787 781 774 771 775 782 784 781 778 775 776 779 782 786 791 792 793 796 797 799 800 802 805 807 809 812 814 815 817 818 819 820 821 821 822 822 821 821 822 822 822 821 821 821 821 821 821 821 821 820 820 819 819 818 817 817 816 815 814 813 813 813 812 812 811 811 810 810 810 809 809 808 808 808 807
755 757 757 762 763 755 754 770 787 794 790 783 780 778 776 780 786 783 778 779 782 783 784 788 791 793 794 796 798 801 803 805 807 809 811 813 816 817 818 819 820 821 821 821 822 823 823 822 822 823 823 822 822 823 823 822 822 822 822 821 820 820 819 818 818 818 816 816 815 814 813 813 812 812 812 811 811 810 810 810 809 809 808 808 807 807
759 760 763 769 769 763 769 785 793 793 786 780 780 784 784 783 783 779 779 784 786 787 789 793 795 796 798 800 803 805 808 810 812 814 815 817 819 819 820 821 821 822 823 823 824 824 824 824 824 824 824 824 824 824 824 824 823 823 822 822 821 820 819 818 818 817 816 816 815 814 814 813 812 812 811 810 810 810 809 809 809 808 808 808 807 807
763 764 766 771 771 771 780 789 790 786 784 782 784 787 789 789 787 785 786 789 789 791 795 798 799 801 802 804 807 810 812 813 816 817 818 820 821 821 822 823 823 824 824 824 825 826 826 826 825 825 825 825 825 825 825 824 824 823 822 822 821 820 819 818 817 816 816 815 815 814 814 813 812 811 811 810 810 809 808 808 808 807 807 807 806 806
763 762 764 771 777 778 783 787 787 788 789 788 789 790 791 793 793 793 794 795 795 798 801 803 805 806 807 808 810 813 815 817 818 820 821 821 822 823 823 824 825 825 826 826 826 827 827 827 826 826 826 826 827 826 826 825 825 824 823 822 821 820 819 818 817 816 815 815 814 814 813 812 811 811 810 810 809 808 808 808 807 806 806 805 805 805
763 762 765 773 778 782 788 791 790 791 793 792 793 794 794 795 797 798 800 801 802 803 806 808 810 812 812 812 812 815 818 819 819 821 821 821 823 824 824 825 826 826 826 827 827 828 828 828 827 827 827 827 827 827 826 826 825 824 823 822 821 820 819 818 817 816 815 815 814 813 813 812 811 810 810 809 808 808 807 807 806 805 805 804 804 803
767 765 767 773 778 782 788 791 791 792 794 793 795 797 798 799 801 802 803 805 807 808 810 811 813 814 815 816 816 817 819 820 821 821 820 821 822 823 824 826 826 827 827 828 828 829 828 828 827 828 828 828 828 827 827 826 825 824 823 822 821 820 819 818 817 816 816 815 814 814 813 812 811 810 809 808 808 807 806 806 805 804 803 803 803 802
768 767 768 774 783 789 790 791 792 793 794 794 796 798 800 801 803 804 805 807 808 810 812 813 815 816 818 818 818 818 819 820 822 821 821 821 823 824 825 826 827 827 828 828 828 829 829 829 829 829 829 829 829 829 828 827 826 825 824 823 822 821 820 819 818 817 816 815 814 814 813 812 811 810 809 808 807 806 806 805 804 804 803 803 802 801
772 775 773 775 784 790 791 792 792 793 796 798 798 798 800 802 803 805 806 807 808 810 812 814 815 816 818 819 820 820 820 821 822 822 822 822 824 825 826 826 827 827 828 828 829 829 830 831 831 831 831 831 830 830 829 828 827 826 826 825 824 823 822 820 819 818 817 816 814 814 813 812 811 809 808 807 806 805 804 803 803 803 802 802 801 801
779 781 780 781 784 787 789 791 791 792 796 799 799 799 801 802 802 804 806 808 809 810 811 813 814 815 817 819 820 820 821 822 823 823 823 823 824 826 827 827 827 828 828 829 830 830 831 832 832 832 832 831 830 830 829 828 828 827 826 825 824 824 823 822 821 820 818 817 815 814 813 813 811 810 808 807 806 805 804 802 801 800 800 800 800 800
Wind_Speed
8 7 8 9 10 12 13 14 15 17 18 14 13 14 13 11 10 14 14 11 17 13 13 14 13 14 13 15 13 11 12 11 9 9 9 9 10 11 11 11 12 11 11 12 14 16 13 17 29 26 21 22 24 23 22 21 21 21 21 21 21 20 19 20 20 19 18 17 12 10 9 9 10 9 8 8 9 9 9 10 10 9 8 8 8 7
9 9 9 12 13 14 14 14 14 17 17 13 12 15 11 10 11 12 14 12 14 9 10 13 13 13 13 14 13 12 15 13 11 10 10 10 11 11 11 12 12 11 10 11 12 14 12 24 28 25 23 24 25 24 22 22 23 21 18 17 17 17 16 17 18 17 15 13 10 10 9 9 9 9 9 9 9 9 8 9 10 9 8 8 8 7
9 9 12 14 13 13 14 11 12 15 14 10 9 11 9 6 10 10 10 9 10 5 7 11 11 11 12 14 12 12 13 12 11 11 10 11 11 11 11 10 11 11 9 10 10 9 17 25 23 22 22 23 23 23 22 21 22 19 15 16 16 16 17 17 15 13 12 13 11 7 7 10 10 11 12 11 9 9 9 9 9 8 8 7 7 7
7 10 15 15 13 14 12 6 6 8 7 8 8 8 7 8 10 5 4 4 9 5 6 7 8 8 12 12 10 13 12 12 11 12 12 12 10 10 11 9 10 11 9 8 7 9 18 21 18 18 19 22 22 19 19 20 20 17 14 15 16 16 17 16 13 12 13 15 12 8 8 11 14 15 14 12 10 10 10 10 9 9 8 7 7 7
10 11 13 15 16 15 10 5 6 6 5 9 10 10 9 10 12 7 6 6 7 7 6 6 8 7 11 11 10 12 9 11 10 12 12 12 10 11 11 8 7 9 6 7 14 14 13 13 15 16 18 22 20 16 16 17 19 19 15 15 16 17 17 15 13 14 16 16 13 11 11 12 13 12 11 11 10 9 10 10 9 8 8 7 7 8
13 9 7 13 15 10 8 8 10 8 6 9 11 13 15 15 16 10 6 7 4 5 7 7 8 7 8 11 12 9 8 10 11 12 12 13 12 10 8 7 6 8 8 13 16 12 10 11 13 15 16 17 15 15 16 15 18 19 18 18 18 17 17 16 16 16 18 16 13 11 11 11 11 9 9 9 8 8 10 10 8 8 8 8 8 8
10 8 5 9 8 7 9 9 10 11 8 8 10 13 17 19 18 15 7 6 5 5 6 9 9 5 7 13 14 11 11 13 13 12 12 13 9 7 6 7 5 8 12 13 10 10 11 11 11 13 15 15 15 17 18 18 19 19 20 20 20 20 19 18 18 17 18 17 13 10 9 9 8 8 9 8 8 9 10 9 8 9 8 8 8 8
8 10 8 9 8 7 9 8 10 12 9 8 10 13 17 18 17 15 13 7 5 5 5 9 10 7 7 11 13 13 13 13 13 11 11 9 6 8 4 2 8 10 9 9 10 12 14 12 12 14 16 17 19 21 22 22 23 23 23 22 21 22 20 19 18 17 17 15 12 9 8 8 8 9 10 9 9 10 9 8 8 8 8 7 7 7
9 10 9 9 10 8 9 10 11 13 10 10 13 14 13 14 15 14 10 7 5 5 6 8 9 7 6 6 9 13 14 13 12 12 11 7 11 8 6 5 13 8 6 8 9 15 16 13 16 20 19 18 21 23 22 23 25 26 25 24 22 22 21 20 18 17 16 13 11 10 9 9 10 11 10 9 9 9 8 7 8 8 8 8 8 7
8 10 11 10 9 8 10 12 13 13 11 11 14 13 9 10 12 11 8 7 6 5 6 8 7 6 6 5 7 10 12 12 10 11 11 9 11 10 7 12 13 7 5 4 9 18 17 15 20 22 20 20 21 21 23 24 27 29 27 26 25 24 24 23 20 18 16 13 13 11 10 11 13 12 10 10 10 9 8 7 8 8 8 8 8 7
5 4 8 9 8 10 11 12 13 14 13 12 11 10 9 9 9 9 8 6 5 5 8 11 10 8 7 5 6 8 10 10 9 9 8 10 13 11 12 15 10 7 6 2 10 17 19 19 20 18 18 19 19 21 25 26 28 32 31 29 29 27 26 25 22 20 17 16 15 12 11 14 14 12 12 12 10 9 8 8 8 8 8 7 7 7
10 4 4 6 8 12 11 9 9 10 11 10 7 6 8 7 6 7 6 5 6 5 8 13 13 11 8 4 5 5 5 6 7 8 8 8 11 11 13 13 10 7 6 4 9 15 17 16 15 14 16 18 18 20 25 25 25 29 31 32 31 30 27 25 24 21 19 19 16 12 12 15 14 13 13 12 11 10 9 8 9 9 8 8 7 7
11 9 7 7 10 13 10 6 6 6 8 9 7 7 7 5 5 6 5 6 6 6 9 11 10 8 4 1 2 2 2 2 3 7 10 10 10 11 13 13 8 5 5 6 9 13 12 9 8 9 11 16 18 19 23 24 21 22 27 32 33 31 28 26 25 24 22 19 14 13 15 16 14 13 13 12 10 10 9 8 8 8 8 8 8 8
8 9 11 10 9 11 10 7 7 7 8 9 7 7 7 5 5 6 6 6 6 7 10 8 4 3 2 4 5 7 8 8 10 5 10 12 10 9 12 13 9 6 5 6 12 14 10 7 8 10 13 16 17 17 17 17 16 16 21 28 30 29 28 27 27 26 23 20 15 15 17 16 15 14 12 12 10 10 9 8 8 8 8 9 9 9
8 8 10 11 8 10 12 11 9 7 8 10 9 8 7 5 4 5 5 5 4 4 7 8 4 1 2 4 8 10 9 8 9 8 7 7 7 8 10 13 11 9 6 7 12 12 11 11 13 16 17 14 13 15 14 12 11 14 20 24 26 29 29 28 29 29 25 23 19 17 18 17 15 15 13 11 10 10 9 9 9 8 9 10 9 9
10 8 9 13 11 11 14 14 12 10 6 7 9 9 6 4 4 3 3 2 1 3 5 5 3 3 4 4 7 9 7 7 7 7 8 9 7 5 8 11 10 9 6 8 10 9 10 13 15 12 10 10 11 12 14 12 10 12 17 21 23 28 29 27 28 29 28 25 20 17 18 17 16 15 14 12 11 10 9 9 9 9 10 11 10 10
7 8 6 13 14 13 13 13 12 11 4 2 6 9 7 7 6 2 2 2 2 3 3 2 3 4 4 6 7 9 9 8 6 8 10 9 9 7 7 8 7 7 9 9 10 10 9 12 12 10 11 13 12 10 11 16 16 12 12 17 21 25 27 26 25 25 26 25 21 17 16 16 15 15 14 13 12 11 10 9 9 10 11 11 11 11
6 6 4 6 13 14 12 12 13 12 7 3 4 4 4 5 5 2 2 3 3 6 5 5 5 4 5 5 7 10 10 9 8 11 11 7 6 5 5 6 5 9 11 10 10 9 7 9 12 15 18 19 19 18 18 21 21 17 14 16 20 23 26 26 24 24 25 24 21 18 15 15 14 13 12 13 13 12 11 9 9 10 11 12 12 12
6 5 5 10 13 13 11 10 11 12 12 9 3 2 3 3 3 2 2 3 4 5 4 6 9 5 2 2 8 9 10 11 8 9 9 5 3 3 3 5 9 11 10 9 10 7 6 9 14 18 19 21 22 23 23 21 21 21 20 18 16 17 20 22 22 22 22 21 19 17 15 14 14 13 12 14 14 12 11 10 10 10 12 12 12 11
3 3 4 9 10 9 9 7 7 7 11 10 5 3 4 3 2 2 2 3 5 5 4 7 7 2 4 1 9 11 11 11 9 9 8 2 2 1 3 5 8 8 8 7 7 7 8 9 12 14 17 21 21 20 20 19 19 20 21 21 19 18 18 18 19 19 19 17 17 16 15 14 14 13 13 14 14 13 12 11 10 10 11 12 12 12
4 2 2 5 8 7 6 6 7 7 7 8 6 6 6 4 4 4 3 4 5 5 4 4 3 3 5 3 9 14 10 9 10 11 10 5 3 0 2 5 6 5 5 4 5 7 8 9 10 13 17 19 21 20 19 16 16 17 18 19 20 21 19 17 16 17 17 16 15 16 16 16 16 15 15 15 15 14 13 12 11 11 11 12 12 12
2 4 3 5 6 6 6 6 9 10 9 8 7 7 7 6 5 4 4 5 5 4 2 1 1 3 4 3 9 12 9 8 10 12 13 10 7 5 4 5 5 2 3 5 7 8 8 9 12 15 16 18 19 20 18 15 14 15 15 15 16 17 17 16 16 17 16 16 16 17 17 18 19 18 16 17 17 16 15 14 13 12 12 12 12 12
1 2 5 6 5 6 9 9 8 10 12 12 9 7 7 7 5 4 4 4 4 3 2 1 3 3 3 4 8 10 9 9 9 11 14 12 9 9 9 10 11 9 8 8 10 9 7 10 14 16 16 16 17 17 16 15 15 15 15 15 15 15 16 15 15 16 16 17 17 17 18 19 20 20 18 18 19 18 17 16 15 14 13 12 12 12
2 2 5 3 2 7 10 11 14 14 11 10 8 7 7 7 7 7 4 2 2 3 2 2 2 4 3 3 7 9 11 10 9 10 12 10 9 10 11 12 12 11 9 9 9 8 8 10 12 13 13 13 14 15 15 15 14 14 15 15 13 14 15 15 14 14 15 16 16 16 17 18 18 20 19 18 20 19 18 18 18 17 15 12 12 12
1 3 4 2 1 4 6 6 8 10 9 7 7 8 10 10 7 4 2 2 1 4 5 3 1 3 2 3 7 9 10 11 9 10 10 9 9 10 9 10 11 10 10 9 9 9 8 8 8 9 10 10 11 13 14 14 14 14 14 13 14 14 14 14 14 14 14 15 17 18 18 18 19 21 21 21 21 21 20 20 19 19 16 13 12 12
1 1 2 4 4 3 4 3 2 4 6 7 12 13 13 14 9 1 3 1 3 6 6 2 4 3 3 7 11 8 8 8 6 5 8 7 8 9 9 9 10 10 10 9 9 8 6 6 7 8 9 9 9 11 12 12 13 13 13 13 13 13 13 13 13 13 13 14 17 19 19 21 24 25 24 22 20 19 19 19 18 19 17 14 14 14
1 1 3 4 4 2 2 1 1 3 5 8 16 18 14 14 12 3 2 2 2 0 2 1 7 8 5 9 12 8 7 8 5 5 4 5 8 9 8 9 10 10 10 10 9 8 7 7 6 8 9 8 9 9 9 9 10 11 12 12 12 12 13 13 12 12 12 11 14 16 17 20 23 22 20 19 18 18 20 20 18 17 16 14 13 13
2 3 5 5 6 6 5 2 2 1 6 10 15 16 16 16 12 5 3 2 2 2 1 2 7 10 7 8 10 8 8 9 6 2 2 2 7 9 9 10 11 11 11 11 10 10 10 9 7 8 8 8 10 9 7 8 9 9 8 6 7 9 10 10 10 12 12 10 10 11 13 16 14 11 10 12 13 11 10 12 13 12 13 13 13 12
4 4 5 5 7 5 5 3 1 2 5 7 11 13 14 16 15 12 9 8 4 3 4 7 9 11 9 8 11 9 7 8 9 8 3 1 3 7 9 11 11 12 12 12 12 11 11 9 8 7 7 7 9 9 8 10 9 7 6 5 4 7 8 8 8 9 10 11 10 9 11 13 12 11 11 12 11 7 3 7 8 8 8 8 10 11
2 2 2 5 6 4 2 0 3 2 4 2 6 11 13 14 15 15 14 14 6 6 12 13 13 12 9 9 11 10 8 8 8 7 6 3 3 5 7 8 10 12 13 12 12 12 11 11 9 8 5 4 7 9 10 9 8 7 6 4 4 7 8 9 8 7 6 8 8 8 11 13 12 14 13 11 11 11 10 12 12 12 9 5 6 8
1 1 2 3 5 5 4 3 1 2 2 2 1 5 9 11 12 12 11 12 6 9 16 15 14 11 7 9 12 11 10 10 10 11 9 6 5 5 6 7 10 13 13 13 13 13 14 14 12 10 9 7 8 11 10 8 8 9 6 6 6 6 8 9 8 5 5 4 5 8 11 11 12 13 12 11 11 12 12 12 13 13 12 8 7 8
2 2 2 3 5 4 5 6 4 2 1 2 4 2 2 6 8 9 9 8 5 5 12 12 10 7 6 10 12 12 13 14 14 14 13 11 11 12 12 13 13 14 14 15 16 16 17 17 18 19 19 17 14 12 10 8 7 6 4 6 8 6 5 8 8 6 5 3 5 8 9 9 10 10 9 8 8 8 9 10 10 9 9 9 10 11
2 1 3 4 5 4 4 5 4 2 2 4 4 4 4 3 6 8 10 11 9 3 2 5 7 8 10 12 12 12 14 15 14 13 12 13 14 15 15 16 16 17 17 17 17 18 18 19 20 22 24 26 24 19 15 11 6 2 3 7 9 7 6 8 8 7 6 4 5 7 8 8 8 8 8 7 6 6 5 6 7 7 8 10 13 14
3 3 3 2 3 4 1 6 5 2 3 0 3 2 3 4 7 8 7 9 9 5 3 6 10 12 12 12 12 12 13 13 12 12 12 12 12 13 14 15 16 16 16 16 16 17 18 20 22 23 24 25 27 28 28 27 21 10 5 7 8 7 7 8 8 8 7 6 6 7 8 8 8 8 8 7 7 7 6 5 6 7 7 10 13 15
2 5 3 0 0 1 1 3 4 2 1 1 3 3 4 6 10 12 9 6 7 8 10 11 11 13 14 13 13 13 12 11 11 11 12 12 11 12 13 13 13 14 14 14 14 15 17 19 20 21 23 24 26 27 28 32 34 27 18 12 9 10 11 11 12 12 11 10 10 9 9 8 7 7 7 7 8 8 7 8 9 10 10 12 14 14
3 3 1 0 1 1 2 3 2 0 1 2 3 3 5 7 10 9 7 5 6 9 11 12 12 14 16 15 12 11 11 11 10 9 9 11 10 9 10 9 9 10 10 12 13 14 16 18 18 19 22 25 27 26 26 29 32 34 32 25 15 13 15 15 13 13 14 15 14 12 10 9 6 5 5 7 8 9 10 10 9 10 11 11 11 10
4 1 1 0 1 1 2 2 1 1 1 2 4 5 5 4 3 4 4 4 6 8 9 11 12 13 14 13 12 10 10 10 9 7 8 9 9 8 9 8 7 8 9 10 12 13 14 16 17 18 21 24 25 24 24 26 27 27 30 31 25 22 23 21 18 16 16 16 15 14 13 12 10 8 6 4 2 3 8 9 7 7 8 9 9 9
4 4 1 2 1 2 2 2 1 1 1 2 6 8 7 7 6 4 7 7 7 9 10 10 11 12 12 12 11 10 9 8 7 5 6 9 10 10 11 11 11 10 9 9 9 9 9 10 11 13 14 16 18 18 19 20 20 20 22 24 25 24 24 23 21 19 18 18 17 15 13 13 13 12 10 10 10 8 5 4 4 5 6 6 7 9
2 5 2 3 3 4 4 3 1 0 0 2 6 8 7 8 9 4 4 6 8 11 11 11 11 11 11 12 11 8 6 6 6 5 6 8 10 11 11 11 11 11 9 8 7 5 4 3 5 7 10 10 11 13 12 13 15 16 16 16 16 15 16 17 16 16 16 17 16 15 13 12 13 13 13 14 14 13 10 7 4 1 4 5 5 8
4 1 1 3 3 3 3 2 1 2 3 4 5 6 6 7 7 3 3 6 8 11 11 11 12 11 10 10 7 4 4 6 7 7 8 9 10 11 10 10 10 10 10 8 6 5 4 5 5 6 8 9 9 9 9 10 11 12 12 11 10 9 10 11 12 12 12 13 13 12 11 11 12 12 12 14 14 13 11 10 10 9 5 4 6 9
4 3 2 4 2 2 2 0 2 3 3 7 8 7 6 6 4 1 4 4 5 9 10 9 10 10 9 8 7 6 7 9 9 10 10 10 10 9 10 10 10 10 10 9 8 8 7 6 7 7 8 9 9 9 9 9 8 8 8 9 9 8 9 10 10 11 12 13 13 12 11 10 10 10 10 11 12 11 11 10 11 13 11 7 7 9
4 3 3 3 3 3 1 2 2 3 2 6 9 7 6 4 1 3 4 5 6 7 9 10 11 11 11 10 10 9 10 11 11 10 10 9 9 8 8 9 9 9 9 9 9 9 8 7 7 8 8 8 8 9 9 9 8 8 8 8 9 10 10 9 9 11 12 13 12 12 12 11 11 11 10 10 9 9 10 10 11 13 13 12 10 11
4 4 2 3 4 4 0 3 3 3 3 5 6 4 4 3 3 4 5 8 10 9 9 11 11 9 9 11 11 11 11 11 11 10 9 8 7 7 7 7 8 8 8 7 8 9 9 8 7 8 8 8 8 8 8 9 8 8 8 9 10 11 11 11 10 10 11 12 12 13 13 13 13 12 11 10 10 10 11 11 11 12 13 14 13 13
5 4 2 4 4 4 2 4 3 3 5 4 4 5 7 7 5 2 5 8 9 8 9 9 8 8 9 10 11 10 10 10 9 8 8 7 6 5 6 7 7 7 7 6 7 8 8 7 7 8 7 7 8 9 9 9 9 9 9 10 11 11 12 12 12 12 12 12 13 13 13 13 14 13 13 12 12 12 12 11 12 13 14 15 16 15
6 5 4 5 6 5 5 6 5 5 6 7 8 9 10 11 10 9 9 8 7 8 8 7 7 8 8 9 10 9 7 7 7 6 6 6 5 5 6 7 6 6 6 5 6 8 8 6 6 6 6 6 8 9 9 10 10 11 11 11 12 12 12 12 13 13 13 13 12 13 14 14 15 15 14 14 14 14 14 14 14 15 15 15 17 17
5 4 3 5 7 8 8 7 7 7 7 8 9 9 10 11 11 12 12 10 8 9 9 7 7 8 7 6 8 7 6 6 6 5 5 5 5 5 6 6 5 4 4 5 6 6 7 6 6 5 6 7 8 9 9 10 10 10 11 12 13 13 13 13 14 14 13 13 13 14 14 15 16 16 16 16 16 15 16 16 15 16 16 16 16 17
4 3 3 5 4 3 5 7 7 7 7 7 7 8 9 10 10 10 10 9 9 10 9 8 8 7 7 6 6 7 6 5 5 4 4 4 5 6 6 6 5 5 4 5 5 5 6 6 5 5 6 7 8 8 8 9 9 9 10 11 12 13 14 14 14 14 14 14 14 15 15 15 16 16 16 16 16 16 16 17 17 17 17 17 17 17
3 4 2 5 3 2 6 9 8 8 8 7 7 7 7 8 10 10 9 10 10 10 9 9 7 6 6 5 5 6 6 6 4 3 3 4 5 6 6 6 5 5 5 4 5 4 5 5 5 6 7 8 9 9 10 10 10 11 11 12 13 14 14 14 14 14 14 14 15 15 16 16 17 18 18 17 17 17 18 18 19 19 17 16 15 12
3 4 3 6 6 6 7 9 8 8 8 8 8 8 7 7 9 9 9 9 9 8 8 8 8 7 6 5 4 4 5 6 6 4 3 4 5 5 6 6 5 5 5 5 5 5 6 7 7 8 8 8 8 9 9 10 11 11 12 13 14 16 17 17 17 16 15 14 14 14 14 16 17 17 17 17 17 18 19 18 19 19 19 19 16 13
3 4 4 3 4 4 6 7 5 5 6 7 8 9 8 8 8 8 8 8 7 7 7 7 8 9 9 7 5 5 4 5 6 4 4 4 5 5 6 6 6 5 6 6 6 7 7 7 7 7 6 6 6 7 7 8 9 10 11 11 12 13 15 16 16 16 16 16 15 15 16 17 17 16 16 16 17 18 19 20 21 21 21 23 23 23
5 6 6 4 4 6 7 6 3 3 6 7 7 7 7 6 5 6 6 5 4 4 5 4 3 5 6 5 4 5 5 5 5 5 5 4 5 7 7 6 6 6 7 7 7 7 6 6 5 5 5 5 6 6 7 8 8 9 10 10 11 11 12 13 13 13 14 14 16 18 19 18 17 18 18 18 18 18 19 22 23 22 21 22 23 24
Wind_Direction
205 212 218 221 226 225 222 229 241 243 247 269 297 285 242 225 243 234 240 214 175 186 202 210 220 205 220 240 222 173 171 217 210 198 231 202 185 191 182 186 193 194 193 189 191 198 187 119 104 115 133 126 116 120 124 129 135 134 133 136 139 140 138 135 135 132 126 125 128 139 144 131 119 119 115 107 112 113 109 110 106 101 103 104 104 108
208 222 227 225 229 235 229 223 238 254 262 275 292 290 260 221 236 233 235 215 172 185 202 196 222 219 212 228 226 193 177 200 211 205 231 217 195 201 198 197 189 187 195 182 184 193 138 102 109 117 118 119 118 127 137 140 142 137 133 137 140 139 135 133 135 133 126 118 115 125 130 130 130 135 132 110 103 109 101 101 103 103 107 103 101 103
212 227 233 233 231 238 242 230 231 247 260 274 273 277 282 245 235 230 232 216 159 179 217 189 212 231 228 226 221 213 190 183 196 204 231 228 204 200 200 203 185 178 198 182 176 166 107 100 114 117 117 123 126 141 147 139 140 137 129 132 135 135 135 135 134 130 122 107 104 121 133 137 129 119 121 116 112 117 111 107 104 102 105 104 109 106
208 226 228 233 235 232 236 249 262 259 251 263 263 254 271 268 249 221 179 158 129 152 243 230 228 231 235 228 217 231 204 165 187 209 228 229 209 199 200 214 194 177 195 174 127 83 92 105 121 124 125 128 134 147 140 130 133 131 130 135 134 137 139 138 134 123 111 101 103 116 116 120 116 106 111 117 117 116 113 110 105 103 101 96 98 93
224 227 216 220 230 228 222 226 247 264 251 245 252 250 258 266 260 237 158 151 146 162 201 246 257 239 234 224 215 234 196 160 198 213 223 228 207 196 200 219 197 167 170 113 85 78 97 120 140 141 130 130 137 138 128 127 129 130 137 139 136 137 137 139 136 122 116 111 108 114 111 111 112 113 119 121 118 120 118 112 107 107 102 97 92 84
234 239 219 218 217 204 209 224 226 233 254 248 238 243 256 265 271 265 171 157 189 200 187 208 243 237 228 229 225 223 178 178 217 217 220 225 202 190 199 212 182 135 90 79 90 106 131 142 146 131 112 120 129 125 127 128 127 133 139 139 137 134 134 139 139 133 130 122 112 116 117 115 123 134 134 125 121 122 118 113 111 110 105 101 96 89
240 236 227 230 207 175 209 229 226 222 235 252 233 226 243 258 270 276 251 196 207 234 205 200 230 244 219 225 224 213 193 197 210 209 219 223 190 159 198 212 168 105 77 80 113 142 140 133 127 110 107 127 135 133 139 135 133 139 137 139 140 137 141 142 141 144 137 124 118 123 126 134 148 143 127 119 114 111 111 110 109 111 110 105 101 99
234 223 204 225 223 206 224 230 222 220 223 246 241 222 224 239 253 262 268 259 223 234 228 203 217 240 232 218 209 210 209 201 201 200 212 214 121 104 208 196 80 82 97 134 164 150 135 125 128 130 132 145 149 147 150 146 146 146 141 143 143 143 145 141 143 145 131 123 127 135 150 167 160 132 122 119 113 113 117 119 120 121 118 112 108 104
212 216 194 212 227 222 233 235 222 218 224 238 248 247 230 224 234 242 255 259 228 228 240 218 213 236 252 214 195 212 213 201 197 194 199 171 104 129 205 95 84 98 146 176 154 129 129 134 147 151 146 151 155 154 157 154 148 144 144 147 146 147 147 146 153 144 126 129 141 156 181 172 141 131 134 131 125 126 128 127 127 123 115 108 105 101
208 219 211 205 219 232 230 231 223 216 226 239 247 264 262 231 227 231 239 243 230 229 242 231 214 237 252 198 188 215 211 202 198 195 194 156 131 161 153 95 97 131 191 202 115 116 130 146 157 155 147 154 160 161 163 158 148 145 149 152 150 154 155 156 157 142 131 145 158 179 189 155 137 142 144 135 133 135 132 125 120 118 113 110 104 98
226 221 235 219 212 231 232 229 227 217 220 231 237 250 253 239 228 224 231 242 235 229 242 237 218 229 251 208 192 211 200 195 198 190 171 145 155 160 118 108 122 154 193 181 101 120 138 150 163 160 147 152 159 165 166 160 153 152 156 158 156 159 161 157 153 145 146 159 172 187 176 148 145 150 144 137 139 140 138 135 132 132 126 116 108 101
235 211 238 241 226 232 236 234 234 225 217 218 223 239 239 226 224 229 225 232 238 227 237 240 224 220 243 228 196 203 192 192 183 151 121 131 163 150 112 119 145 170 189 160 120 131 138 146 163 157 145 150 158 170 172 167 162 159 159 160 158 158 160 156 153 154 158 164 175 182 163 151 151 150 145 143 145 147 148 149 143 137 129 119 116 111
232 224 211 219 231 237 241 231 219 226 227 221 212 225 239 219 209 228 222 218 233 229 228 239 235 220 228 225 159 104 68 67 91 130 154 173 174 149 123 125 150 189 191 158 128 119 120 131 138 131 147 161 167 179 179 172 169 164 160 160 158 158 159 159 159 160 162 166 171 168 159 155 152 150 149 148 151 151 153 154 147 142 139 134 126 119
218 232 221 213 218 226 236 235 208 199 213 228 225 218 226 221 214 222 226 227 229 228 225 225 243 233 144 81 97 99 86 63 45 76 163 171 166 158 140 134 153 199 195 138 107 105 116 128 128 147 175 177 175 182 179 169 166 159 158 160 158 157 160 162 162 161 163 165 163 159 159 158 153 151 151 151 153 153 154 156 155 154 149 139 132 128
215 226 216 210 204 196 213 236 240 221 203 211 226 236 230 223 235 228 225 244 244 250 238 212 200 212 157 100 87 95 97 84 63 64 97 121 142 166 157 143 154 181 180 117 103 115 132 145 158 173 184 178 167 169 163 155 160 156 158 162 159 159 164 165 164 163 166 166 161 159 161 158 154 153 152 152 154 155 156 158 161 158 148 142 138 133
232 235 203 203 208 196 202 226 250 254 231 206 214 232 235 215 229 238 229 251 297 316 277 218 177 82 133 139 96 98 105 99 93 85 74 69 80 117 147 149 158 166 138 98 110 129 136 150 165 172 181 174 151 149 146 146 162 162 162 166 163 164 167 165 165 166 168 167 161 160 161 159 157 156 152 150 153 155 157 161 163 154 148 148 144 136
238 249 207 193 201 205 206 213 233 242 242 255 227 226 230 216 205 208 225 190 139 249 251 166 103 85 151 160 123 126 130 117 103 81 66 59 62 69 110 140 164 145 116 110 131 141 141 152 160 170 189 179 153 145 149 153 162 165 171 173 167 167 167 165 165 165 165 165 160 157 160 161 157 154 151 150 151 156 158 161 161 154 152 153 148 143
235 261 286 236 214 206 207 211 223 230 223 224 247 265 287 244 201 150 215 200 191 240 228 164 164 178 202 182 143 150 143 118 95 78 62 47 64 66 79 111 114 99 100 111 118 121 132 145 162 183 186 168 158 171 178 170 165 164 174 181 176 172 169 166 166 163 161 161 159 156 158 161 156 148 147 148 150 156 158 159 158 155 157 155 152 150
226 251 290 275 241 200 195 219 223 226 229 231 237 328 321 268 212 186 220 218 216 238 242 214 204 192 225 169 143 146 129 112 107 98 81 45 49 73 72 86 84 84 92 100 106 124 163 163 172 181 166 145 151 171 180 178 170 165 168 174 176 176 172 168 166 161 156 155 156 158 159 162 154 144 144 148 153 157 157 159 160 159 163 162 160 159
212 251 251 259 254 202 186 219 227 218 229 236 234 211 215 214 210 233 261 246 234 231 233 233 217 130 20 26 131 121 113 120 127 114 102 63 320 24 59 61 66 83 100 105 129 162 172 163 163 159 143 137 147 162 169 173 173 168 167 168 173 182 182 172 160 153 150 150 154 159 164 162 150 146 152 154 157 159 158 163 167 167 169 168 167 167
183 175 232 259 265 238 204 208 225 232 229 229 230 226 225 211 192 198 229 255 257 248 234 245 232 82 22 4 117 118 122 134 134 128 128 153 229 258 85 74 59 66 99 124 157 161 150 143 136 128 128 131 138 149 156 164 170 168 167 169 172 178 178 167 155 151 151 153 156 159 164 162 153 154 162 163 163 163 162 165 170 174 175 172 174 173
183 172 203 251 252 256 263 237 225 238 244 235 227 226 232 232 217 211 226 238 249 260 267 258 173 84 50 65 114 125 139 137 128 128 129 140 169 176 148 124 109 115 196 169 152 146 140 138 132 126 124 123 128 138 143 146 152 154 157 163 164 163 163 159 157 158 157 159 162 165 168 169 165 162 166 170 168 164 166 169 171 176 177 176 179 176
54 194 207 227 245 263 272 285 288 272 256 244 239 236 235 234 228 224 228 232 241 264 288 160 137 98 81 110 122 127 129 124 120 116 118 134 153 151 151 157 159 172 184 162 143 146 147 140 135 127 123 124 128 132 132 135 141 142 145 154 155 154 158 159 160 162 163 164 167 172 173 175 174 169 167 174 173 168 172 175 175 177 176 177 182 179
63 273 231 215 310 283 277 308 318 304 282 258 248 248 250 245 235 233 240 243 220 223 244 230 154 118 99 110 123 125 118 115 117 115 120 131 132 131 139 144 142 141 137 126 122 128 133 132 129 121 117 122 125 126 126 131 140 143 145 150 154 159 163 163 162 163 167 168 170 173 172 172 175 173 171 177 178 176 178 180 181 179 173 176 184 183
39 269 245 232 276 268 279 304 308 310 322 318 292 269 254 250 248 256 315 355 264 245 248 250 140 110 129 117 112 119 115 108 110 122 132 131 124 125 122 112 113 112 111 112 112 114 119 119 115 114 114 113 118 125 127 131 139 147 151 151 154 161 163 162 162 162 165 169 172 174 173 171 176 181 181 180 182 183 182 181 183 178 171 175 185 188
200 231 228 258 249 240 272 258 251 328 339 334 324 307 272 255 252 66 56 346 268 277 279 255 112 117 154 119 102 93 92 77 50 81 117 125 122 120 115 110 109 106 105 107 106 106 108 106 109 115 112 108 113 118 123 133 142 146 150 154 157 163 163 159 159 161 165 174 177 174 170 174 183 188 186 183 184 184 180 177 179 177 177 181 187 192
161 182 192 236 245 229 262 221 94 342 315 329 335 334 321 289 272 241 141 200 188 312 318 208 145 146 141 109 103 101 97 82 27 11 61 112 114 104 101 105 103 102 107 105 100 98 89 79 85 99 105 111 112 107 113 126 129 130 142 157 163 165 164 160 159 165 172 177 179 175 174 187 195 192 187 186 186 183 178 177 179 180 184 187 189 194
193 203 189 208 233 230 234 217 121 263 290 325 335 337 346 339 326 304 265 251 168 162 174 169 146 131 107 82 92 113 124 121 126 110 10 48 100 101 99 100 99 102 102 97 96 98 92 82 68 63 71 88 94 92 91 95 101 114 128 140 148 151 159 162 160 168 174 173 182 183 177 185 193 189 187 191 190 184 168 167 176 184 190 193 191 194
232 216 174 201 233 235 241 251 118 179 245 306 336 343 354 2 14 18 351 329 290 211 138 118 115 107 103 89 80 89 106 113 123 131 129 10 59 87 93 91 92 95 92 87 87 85 86 90 87 66 49 64 91 100 96 87 86 90 89 87 119 141 158 171 173 177 171 171 188 193 173 173 181 185 184 180 187 202 153 143 168 182 188 197 198 199
298 273 199 211 219 201 187 209 46 88 194 221 353 358 1 10 30 38 9 343 338 119 115 115 107 95 99 100 81 70 73 83 94 103 109 114 87 75 81 82 84 86 82 80 78 71 69 78 90 99 92 79 88 90 90 99 113 112 103 120 149 154 161 171 182 187 168 167 179 168 159 168 181 188 182 170 182 198 181 170 182 186 181 191 200 197
338 258 262 242 227 210 181 174 113 63 96 117 58 4 8 15 31 49 32 352 350 107 111 112 107 96 91 86 73 57 48 55 64 62 56 58 63 65 68 70 78 82 80 78 72 60 54 52 48 55 65 70 83 83 73 75 97 112 136 160 154 157 165 160 157 153 140 153 161 150 158 172 178 181 181 177 182 185 177 181 194 196 194 201 211 210
302 186 193 230 243 226 198 204 203 124 27 259 215 207 27 34 37 48 48 13 346 117 120 114 109 110 101 77 61 51 48 50 54 56 53 48 45 49 54 51 52 58 60 60 54 43 37 33 26 23 24 28 43 68 74 62 64 82 115 123 110 96 95 104 110 120 123 127 139 149 165 176 175 171 165 166 173 174 180 192 199 203 209 218 226 231
289 208 205 220 236 235 203 186 172 150 222 256 247 226 201 130 72 50 38 25 13 13 136 120 116 115 102 84 69 56 53 52 51 52 59 62 56 52 53 53 51 50 47 45 43 38 32 29 26 20 17 19 22 28 40 44 47 109 113 92 100 108 99 96 104 118 127 119 112 132 147 149 152 153 145 147 156 160 178 198 202 212 222 228 235 238
329 292 252 218 228 255 193 130 140 200 219 241 343 316 196 146 96 80 56 34 32 37 64 101 118 116 100 89 87 78 65 60 58 51 52 60 64 58 52 52 53 51 49 46 44 41 34 28 24 20 18 20 20 19 21 19 13 19 69 83 88 98 102 104 98 91 98 100 93 104 113 112 120 136 146 157 158 153 162 181 197 210 214 217 225 230
312 267 252 125 230 286 67 128 162 230 256 82 29 32 99 110 99 91 79 58 54 62 74 89 105 105 95 91 94 93 88 83 75 61 54 56 65 69 61 53 49 48 47 44 41 41 36 29 23 17 14 16 19 19 19 15 12 15 25 40 57 60 61 70 68 53 48 50 56 74 86 90 108 131 145 158 162 163 168 178 187 191 194 203 211 217
199 246 225 126 247 175 173 208 202 153 35 75 79 76 94 113 112 95 74 72 71 62 71 87 93 94 98 100 99 100 103 99 85 75 72 67 65 71 70 61 53 52 52 50 48 44 40 35 31 23 19 21 22 19 17 17 18 19 19 21 34 49 48 54 55 43 36 33 33 38 44 52 73 94 111 137 157 171 175 179 187 187 192 204 208 210
149 138 306 212 285 273 219 190 113 114 143 89 67 52 51 69 107 115 112 117 105 86 83 94 97 100 106 109 109 112 108 94 79 76 92 98 97 96 94 87 75 67 65 66 63 58 54 52 45 35 29 29 27 23 20 21 24 24 17 13 18 27 28 31 33 30 27 25 22 23 24 24 30 36 40 54 76 151 162 167 181 189 201 214 211 205
158 129 220 225 194 242 219 189 182 188 171 32 17 15 17 8 4 70 117 119 117 115 109 104 107 112 116 120 129 135 119 92 81 83 96 106 107 104 102 101 95 86 82 81 78 70 63 64 62 54 45 40 36 30 25 23 24 23 17 12 12 17 19 19 18 17 16 13 11 14 17 16 16 18 17 15 14 22 55 105 159 182 199 215 214 213
251 114 123 241 231 214 208 207 227 218 45 8 0 359 1 360 351 353 121 116 120 128 124 119 120 123 129 137 148 156 136 107 108 125 130 123 118 115 115 117 117 115 110 106 108 110 97 90 92 73 55 48 46 38 29 24 20 18 19 14 9 17 22 15 9 8 7 3 359 2 10 15 16 14 9 6 9 13 11 2 345 260 197 194 209 223
289 92 147 260 277 269 245 231 129 105 51 7 355 356 359 357 342 301 163 122 124 133 132 135 139 138 141 144 140 129 121 115 114 125 135 131 125 122 116 107 107 109 103 92 83 83 87 87 80 59 42 37 37 34 32 29 18 14 16 6 356 15 26 8 359 2 359 350 343 345 359 10 12 11 5 359 359 0 354 344 335 325 293 229 225 229
313 324 290 260 272 295 282 76 114 113 46 348 338 348 353 342 332 220 150 113 112 124 121 121 123 117 114 114 97 76 90 106 107 112 117 113 106 103 96 88 85 84 82 79 60 39 43 61 60 46 35 30 25 21 23 23 11 4 3 350 342 358 5 353 350 350 344 338 334 338 348 353 352 355 351 343 342 343 341 335 329 326 321 303 275 261
330 342 331 311 308 293 222 106 87 94 48 312 311 330 341 337 11 128 125 90 80 94 92 80 79 85 89 92 92 89 91 99 104 108 111 107 98 92 85 80 76 68 65 69 62 40 22 26 41 34 22 18 18 16 12 6 360 353 345 337 338 344 345 343 341 335 330 329 330 332 335 333 330 331 328 324 324 321 318 314 310 313 315 310 297 286
12 343 352 26 350 313 355 88 83 75 34 313 303 333 4 34 99 135 122 94 84 86 86 77 74 83 91 93 97 100 99 101 105 105 104 102 95 88 83 77 72 66 54 45 48 38 16 10 21 15 5 6 10 10 4 354 348 345 337 331 332 333 331 330 329 324 324 326 324 322 321 316 312 311 306 303 303 299 297 297 295 297 301 303 300 289
21 346 7 54 3 323 26 68 78 77 55 34 43 60 51 44 47 72 95 93 93 92 87 81 79 84 89 91 92 94 98 101 100 98 99 101 95 89 89 80 66 58 50 40 41 34 14 8 10 358 353 2 3 0 357 349 341 337 333 327 326 327 326 323 322 321 320 318 315 313 312 308 305 303 298 294 295 292 289 288 286 284 283 284 288 285
38 41 60 61 44 45 75 95 101 91 74 65 66 69 62 51 43 48 61 75 93 91 79 74 76 74 80 96 99 94 97 104 101 95 100 104 98 88 84 79 65 49 38 36 39 29 10 1 357 346 348 2 359 352 348 344 339 334 330 327 326 325 321 316 316 316 314 313 312 311 311 309 307 305 301 297 294 290 287 285 281 279 278 273 273 275
61 67 81 89 86 80 83 97 102 93 80 67 62 65 68 63 58 60 64 68 82 89 83 79 75 59 53 86 105 101 97 101 102 106 111 110 107 103 93 84 76 62 48 46 43 26 2 350 349 350 355 357 352 347 342 338 335 330 327 328 328 326 322 320 318 314 312 311 310 307 306 304 303 303 300 297 295 290 286 284 280 277 276 273 270 271
58 12 71 114 134 113 101 110 110 104 98 88 78 75 76 73 70 71 73 73 78 83 83 82 84 72 54 64 93 104 102 100 104 111 116 115 112 105 93 81 71 62 52 49 45 24 356 346 348 350 348 344 341 339 334 327 324 323 325 329 328 324 321 319 317 317 316 313 310 309 307 304 302 304 302 298 296 295 292 290 289 283 276 274 274 272
16 320 45 99 92 84 111 119 118 116 114 108 100 93 84 79 76 76 81 83 82 84 86 85 88 87 72 67 87 107 110 103 89 80 91 102 98 85 73 66 62 55 44 40 39 20 353 345 348 346 343 342 340 336 333 333 335 336 337 336 334 331 327 322 317 313 309 307 309 310 307 303 302 305 304 299 294 294 292 290 290 289 287 288 290 289
310 311 32 89 92 96 115 126 129 130 124 112 107 107 105 103 101 101 105 104 98 99 102 101 99 97 91 79 79 95 104 95 76 55 55 74 74 62 53 50 50 47 39 29 22 17 8 2 358 351 344 342 341 337 338 341 342 343 341 338 337 337 336 334 331 324 315 307 303 300 301 303 299 293 291 290 288 288 286 283 283 284 284 287 293 300
5 7 30 85 123 124 128 130 131 131 125 115 109 107 107 111 115 116 114 110 106 104 109 117 124 117 106 91 77 74 77 75 65 46 41 64 66 52 42 40 35 30 27 19 13 17 17 8 1 357 352 350 350 347 347 345 342 341 340 335 334 333 330 329 329 325 321 317 313 316 325 326 317 308 304 303 300 297 293 290 286 281 279 278 276 279
32 28 31 44 75 97 113 119 96 96 117 118 111 108 110 112 112 113 108 98 99 113 109 92 85 95 95 96 107 97 72 57 53 43 32 36 48 46 37 28 26 23 19 17 17 18 17 14 12 13 8 2 358 353 350 348 343 341 340 335 332 330 324 319 317 313 312 314 315 321 330 332 328 328 329 327 322 318 314 308 298 288 287 288 282 278